This is the latest recevied weather packets stored in our database for station/object JA6YCL-13. If no packets are shown the sender has not sent any weather packets the latest 10 day(s).
| Time | Temp. | Humidity | Pressure | Rain* | Wind** | Luminosity | Snow |
|---|---|---|---|---|---|---|---|
| 1777553391 | 13.33° C | 97% | 1009.2 hPa | 1.27 mm | - | - | - |
| 1777552617 | 13.33° C | 97% | 1009.2 hPa | 0 mm | - | - | - |
| 1777551846 | 13.33° C | 97% | 1009.4 hPa | 1.02 mm | - | - | - |
| 1777551126 | 13.33° C | 97% | 1009.5 hPa | 0 mm | - | - | - |
| 1777550396 | 13.33° C | 97% | 1009.4 hPa | 0 mm | - | - | - |
| 1777549665 | 13.33° C | 97% | 1009.4 hPa | 0 mm | - | - | - |
| 1777548856 | 13.33° C | 97% | 1009.6 hPa | 0.51 mm | - | - | - |
| 1777548121 | 13.33° C | 97% | 1009.6 hPa | 0 mm | - | - | - |
| 1777547326 | 13.33° C | 97% | 1010.1 hPa | 0 mm | - | - | - |
| 1777546575 | 13.33° C | 97% | 1009.9 hPa | 0 mm | - | - | - |
| 1777545860 | 13.33° C | 97% | 1009.9 hPa | 0 mm | - | - | - |
| 1777545010 | 13.33° C | 97% | 1009.7 hPa | 0.76 mm | - | - | - |
| 1777544246 | 13.33° C | 97% | 1009.4 hPa | 0.76 mm | - | - | - |
| 1777543496 | 13.33° C | 97% | 1010.3 hPa | 4.06 mm | - | - | - |
| 1777542641 | 13.33° C | 97% | 1010.6 hPa | 5.84 mm | - | - | - |
| 1777541766 | 13.33° C | 97% | 1010.7 hPa | 3.3 mm | - | - | - |
| 1777540889 | 13.33° C | 96% | 1010.5 hPa | 0 mm | - | - | - |
| 1777540089 | 13.89° C | 96% | 1009.9 hPa | 0 mm | - | - | - |
| 1777539304 | 13.89° C | 96% | 1009.8 hPa | 1.78 mm | - | - | - |
| 1777538411 | 13.89° C | 96% | 1010.1 hPa | 0 mm | - | - | - |
| 1777537691 | 13.89° C | 96% | 1010.2 hPa | 0 mm | - | - | - |
| 1777536826 | 13.89° C | 95% | 1010.5 hPa | 1.02 mm | - | - | - |
| 1777535956 | 13.89° C | 96% | 1010.7 hPa | 0 mm | - | - | - |
| 1777535221 | 13.89° C | 96% | 1010.8 hPa | 1.78 mm | - | - | - |
| 1777534326 | 13.89° C | 96% | 1011.2 hPa | 4.32 mm | - | - | - |
* Rain latest hour (hover to see other rain measurements)
** Current wind speed in m/s (hover to see current wind gust speed)